星链-34778 (STARLINK-34778)

导读 | 豆包AI

STARLINK-34778是美国于2025年7月30日发射的星链计划卫星,星链是SpaceX打造的大型低轨卫星互联网星座项目,旨在为全球提供高速、低延迟的互联网覆盖服务。该卫星加入星座后,进一步拓展了星链全球网络的覆盖范围,服务更多偏远地区及移动场景用户。

Basic Information
目录编号:
65021
目录名称:
STARLINK-34778
国际标识:
2025-161G
轨道中心:
EARTH
卫星名称:
星链-34778
卫星全名:
星链-34778 (STARLINK-34778)
卫星状态:
在轨 (已飞行273 天)
发射日期:
2025-07-30 UTC
国别 :
美国 (US)
星等 :
--
Orbit Information
数据来源 国际轨道数据 AOE轨道数据
星历时间 2026-04-29T10:19:42+0800
9小时前
查看轨道信息
2026-04-28T17:00:00+0800
1天前
查看轨道信息
半长轴 6853.323km 6853.38km
偏心率 0.000165 0.0001236
轨道倾角 53.162° 53.159°
近地点辐角 83.971° 77.039°
升交点赤经 60.336° 63.690°
平近点角 276.147° 263.439°
近地点 474.055km 474.395km
远地点 476.317km 476.091km
周期 94.105分钟 94.106分钟
每日圈数 15.3021 15.301909
Detailed Information
固有亮度:
5
最大亮度:
2.5
卫星平台:
Starlink V1.0
覆盖范围:
全球
运营商:
太空探索技术公司
运营商所在国:
美国
制造商(研发单位):
太空探索技术公司
制造商所在国:
美国
使用方式:
暂无
Satellite Introduction
Starlink 计划是 SpaceX 推出的全球卫星互联网项目,通过发射低轨道卫星,为全球尤其是偏远地区提供高速、低延迟的互联网服务。自 2019 年起,Starlink 已部署数千颗卫星,旨在缩小全球数字鸿沟,推动互联网普及。该项目还为军事、航空等行业提供通信支持,带来广泛经济效益。
2D Orbit Map
3D Orbit Map
Orbit Altitude Analysis Chart
Orbit Inclination Analysis Chart
Orbit Comprehensive Analysis Chart
View Comprehensive Chart